Helicity
287 235 281 298 253 238 252 225 229 223 200 177 165 159 156 152 145 132 189 162 123 130
322 352 309 269 249 236 251 218 236 198 183 166 154 149 146 160 146 163 218 160 127 141
349 296 212 183 148 259 218 204 180 169 162 149 143 136 143 158 249 212 201 167 168 170
422 335 343 84 195 243 223 180 164 162 151 134 138 131 148 246 244 188 145 167 152 159
288 188 159 175 183 220 197 159 147 158 143 140 150 157 200 220 198 175 179 170 184 169
156 208 261 178 219 213 169 171 169 146 139 150 167 152 129 141 162 184 192 180 164 141
179 315 280 223 207 184 194 160 143 133 144 152 191 156 150 181 199 187 183 145 127 129
404 385 205 164 168 187 150 128 135 126 150 219 204 235 220 213 186 184 158 135 119 120
260 152 219 206 154 113 132 159 144 133 212 212 169 245 196 191 182 165 124 116 120 102
170 178 173 130 111 131 155 139 141 232 201 168 176 211 178 183 163 127 98 96 96 82
251 164 86 85 101 117 142 177 222 196 149 168 150 215 182 161 135 104 84 96 90 78
193 94 109 97 96 124 149 172 212 169 143 129 130 209 210 170 131 92 87 87 67 78
90 90 72 86 123 138 140 139 230 208 189 153 162 192 174 166 126 109 84 67 77 124
49 68 89 116 152 149 141 216 218 186 169 141 159 165 152 135 140 116 97 90 68 105
Wind_Speed
23 25 29 35 39 45 46 48 53 55 57 60 64 64 67 69 69 69 65 66 66 63
26 33 38 42 44 45 46 49 53 58 61 63 64 66 68 67 66 68 68 68 64 63
28 36 39 42 41 42 47 51 56 59 62 64 66 66 67 67 64 71 72 67 67 61
34 41 43 39 42 47 50 54 58 62 65 67 67 68 70 68 70 76 77 66 60 55
39 33 37 39 44 48 52 57 61 64 65 66 68 69 70 71 70 73 70 59 55 52
32 37 43 43 47 51 55 60 61 63 63 65 66 70 71 68 66 66 59 55 51 50
39 43 47 46 49 51 58 61 62 62 63 62 64 67 68 62 62 59 52 50 46 47
46 48 45 47 48 55 58 58 61 63 62 64 66 64 63 62 61 57 52 48 47 47
52 45 49 51 57 56 56 61 65 64 65 69 69 57 58 57 54 50 50 49 46 48
47 50 54 57 56 56 58 61 63 63 68 72 65 56 49 48 47 49 46 44 43 47
52 53 56 55 59 60 60 62 64 67 72 69 62 47 41 42 45 46 45 41 43 45
55 56 55 59 61 65 64 67 66 65 65 62 57 42 38 40 44 46 42 42 40 43
54 55 58 60 64 65 68 70 61 63 60 55 54 43 35 36 41 42 38 37 44 43
53 56 60 61 61 64 67 66 67 64 58 52 47 42 33 32 34 35 33 39 40 37
Wind_Direction
349 344 344 343 339 339 339 339 340 340 340 339 338 337 336 335 334 333 332 332 332 329
343 342 339 337 338 340 343 342 342 340 338 338 337 336 335 335 335 337 338 335 333 329
338 338 335 336 336 340 340 340 340 338 337 337 336 336 336 334 337 336 335 334 332 331
334 334 336 333 336 338 339 339 338 337 337 336 337 337 336 337 335 334 332 333 335 337
327 330 334 332 331 336 336 337 336 337 337 338 338 338 339 337 336 334 335 339 341 340
327 332 332 332 333 334 335 336 337 337 337 338 339 338 337 335 336 339 340 342 342 339
328 332 335 333 333 334 335 334 335 336 336 336 339 339 338 340 341 343 344 342 341 342
333 333 331 331 332 333 333 333 335 334 336 340 340 341 341 340 341 343 345 345 345 344
330 332 334 333 332 330 331 333 334 333 335 335 336 340 340 342 343 346 344 343 345 345
333 333 334 333 332 333 333 333 334 336 333 332 334 338 341 345 347 345 344 344 346 344
333 331 330 331 331 331 332 333 334 334 333 334 336 338 340 344 345 345 343 345 345 343
334 333 333 331 330 330 331 331 332 333 335 336 339 338 339 341 343 342 342 343 343 344
334 334 331 330 329 329 329 330 335 335 337 337 338 339 338 340 341 341 342 344 342 346
334 334 333 332 332 333 332 333 334 334 336 337 339 341 337 337 339 340 341 340 341 348